Regional Weather Roundup
Issued by NWS

Home | Current Version | Previous Version | Text Only | Print | Product List | Glossary Off
Versions: 1 2 3 4 5 6 7 8 9 10 11 12 13 14 15 16 17 18 19 20 21 22 23 24 25 26 27 28 29 30 31 32 33 34 35 36 37 38 39 40 41 42 43 44 45 46 47 48 49 50

000
ASUS45 KBOI 190210
RWRID

IDAHO REGIONAL WEATHER ROUNDUP
NATIONAL WEATHER SERVICE BOISE ID
700 PM MST SAT FEB 18 2017

NOTE: "FAIR" INDICATES FEW OR NO CLOUDS BELOW 12000 FEET
WITH NO SIGNIFICANT WEATHER AND/OR OBSTRUCTIONS TO VISIBILITY

IDZ012-014-190300-
SOUTHWEST IDAHO


CITY           SKY/WX    TMP DP  RH WIND       PRES   REMARKS
BOISE          CLOUDY    48  39  71 SE12      29.43R
CALDWELL       LGT RAIN  44  42  93 CALM      29.44S
MOUNTAIN HOME  CLOUDY    44  44 100 E12       29.45R
$$

IDZ016-017-190300-
SOUTHCENTRAL IDAHO


CITY           SKY/WX    TMP DP  RH WIND       PRES   REMARKS
BURLEY         CLOUDY    44  37  76 NW3       29.50S
JEROME         CLOUDY    42  35  76 E9        29.50S
TWIN FALLS     CLOUDY    46  34  62 SE15G22   29.48F
$$

IDZ019>023-190300-
SOUTHEAST IDAHO


CITY           SKY/WX    TMP DP  RH WIND       PRES   REMARKS
IDAHO FALLS    CLOUDY    36  36 100 NE3       29.59S
POCATELLO      LGT RAIN  46  36  68 S17G25    29.57S
REXBURG        CLOUDY    38  36  92 SE3       29.59F
$$

IDZ006-010-011-018-031-032-190300-
CENTRAL IDAHO MOUNTAINS


CITY           SKY/WX    TMP DP  RH WIND       PRES   REMARKS
MCCALL         CLOUDY    34  31  88 CALM      29.40S
HAILEY         LGT RAIN  36  36 100 CALM      29.53F
STANLEY          N/A     34  32  92 S10       29.46S WCI  26
SALMON         CLOUDY    41  32  70 S8        29.43F
CHALLIS        CLOUDY    38  32  79 NW5       29.45F WCI  34
$$

IDZ002-004-006-007-026-190300-
NORTHERN IDAHO


CITY           SKY/WX    TMP DP  RH WIND       PRES   REMARKS
LEWISTON       LGT RAIN  42  38  85 SW5       29.42R
LOWELL           N/A     36  33  89 CALM      29.39R
COEUR D`ALENE  LGT RAIN  34  34 100 CALM      29.39R FOG
MULLAN PASS    SNOW      31  31 100 VRB6      29.32S VSB 1/4 WCI  25
$$



USA.gov is the U.S. government's official web portal to all federal, state and local government web resources and services.